Location: Franzen
(48.6167°N, 15.3833°E)
Time: 10:52:38
(UTC+00:00)

FALCON 9 DEB - Pass Details

Date: 22 April 2021
Orbit: 364 x 383 km, 53.0° (Epoch: 16 May)

Event Time Altitude Azimuth Distance (km) Brightness Sun altitude
Rises 20:43:22 0° 260° (W) 2,200 7.0 -22.1°
Reaches altitude 10° 20:45:25 10° 266° (W) 1,355 6.0 -22.3°
Enters shadow 20:47:14 30° 285° (WNW) 686 4.5 -22.5°
